This is the latest recevied weather packets stored in our database for station/object W0RMT-13. If no packets are shown the sender has not sent any weather packets the latest 10 day(s).
| Time | Temp. | Humidity | Pressure | Rain* | Wind** | Luminosity | Snow |
|---|---|---|---|---|---|---|---|
| 1777316395 | 9.44° C | 63% | 1012.2 hPa | 0 mm | - | 243 W/m² | - |
| 1777315732 | 8.89° C | 62% | 1012.2 hPa | 0 mm | - | 275 W/m² | - |
| 1777315075 | 8.33° C | 65% | 1012.2 hPa | 0 mm | - | 434 W/m² | - |
| 1777314435 | 8.33° C | 66% | 1012.7 hPa | 0 mm | - | 287 W/m² | - |
| 1777313832 | 8.33° C | 64% | 1012.2 hPa | 0 mm | - | 300 W/m² | - |
| 1777313194 | 8.33° C | 64% | 1012.7 hPa | 0 mm | - | 349 W/m² | - |
| 1777312584 | 7.78° C | 62% | 1012.2 hPa | 0 mm | - | 361 W/m² | - |
| 1777311898 | 7.22° C | 62% | 1012.7 hPa | 0 mm | - | 308 W/m² | - |
| 1777311208 | 6.67° C | 65% | 1012.7 hPa | 0 mm | - | 463 W/m² | - |
| 1777310590 | 5.56° C | 68% | 1012.7 hPa | 0 mm | - | 392 W/m² | - |
| 1777310031 | 4.44° C | 72% | 1013 hPa | 0 mm | - | 428 W/m² | - |
| 1777309358 | 3.89° C | 78% | 1013 hPa | 0 mm | - | 249 W/m² | - |
| 1777308662 | 3.33° C | 83% | 1013 hPa | 0 mm | - | 194 W/m² | - |
| 1777307987 | 3.33° C | 88% | 1012.7 hPa | 0 mm | - | 183 W/m² | - |
| 1777307430 | 2.78° C | 91% | 1013 hPa | 0 mm | - | 159 W/m² | - |
| 1777306736 | 2.78° C | 93% | 1013 hPa | 0 mm | - | 140 W/m² | - |
| 1777305964 | 2.22° C | 93% | 1012.7 hPa | 0 mm | - | 152 W/m² | - |
| 1777305261 | 2.22° C | 95% | 1012.2 hPa | 0 mm | - | 119 W/m² | - |
| 1777304621 | 2.22° C | 96% | 1012.2 hPa | 0 mm | - | 117 W/m² | - |
| 1777303945 | 1.67° C | 98% | 1012.2 hPa | 0 mm | - | 115 W/m² | - |
| 1777303257 | 1.67° C | 99% | 1012.2 hPa | 0 mm | - | 99 W/m² | - |
| 1777302582 | 1.67° C | 99% | 1012.2 hPa | 0 mm | - | 88 W/m² | - |
| 1777301938 | 1.11° C | 99% | 1012.2 hPa | 0 mm | - | 79 W/m² | - |
| 1777301248 | 1.11° C | 99% | 1011.8 hPa | 0 mm | - | 48 W/m² | - |
| 1777300609 | 1.67° C | 99% | 1011.5 hPa | 0 mm | - | 32 W/m² | - |
* Rain latest hour (hover to see other rain measurements)
** Current wind speed in m/s (hover to see current wind gust speed)